Flag for Moldova Weather past 2 weeks in Tiraspol, Moldova

Now
52 °F

Clear.


Feels Like: 51 °F
Forecast: 49 / 70 °F
Wind: 3 mph from Northwest

Location: Chisinau International Airport

Current Time: Sep 17, 2014 at 6:44:23 AM

Latest Report: Sep 17, 2014 at 6:00 AM


Visibility: 10 mi

Pressure: 30.15 "Hg

Humidity: 72%

Dew point: 43 °F

Location of TiraspolLocation

Historic Weather in Tiraspol — Graph

°F

Tiraspol temperature yesterday

Maximum temperature yesterday: 72 °F (at 3:30 PM)
Minimum temperature yesterday: 52 °F (at 6:30 AM)
Average temperature yesterday: 62 °F

Past Weeks' High & Low Weather Summary

 TemperatureHumidityPressure
High88 °F (Sep 2, 2:30 PM)88% (Sep 3, 5:30 AM)30.18 "Hg (Sep 3, 5:30 AM)
Low50 °F (Sep 6, 5:30 AM)16% (Sep 9, 4:00 PM)29.86 "Hg (Sep 2, 5:00 AM)
Average69 °F47%30.01 "Hg
* Reported Sep 2 5:00 AM — Sep 17 5:30 AM, Tiraspol, Weather by CustomWeather, © 2014

Note: Actual official high and low records may vary slightly from our data, if they occured in-between our weather recording intervals... More about our weather records

Advertising

Tiraspol weather history for previous 24 hours

 ConditionsComfort  
Time TempWeatherWind HumidityBarometerVisibility
5:30 AM
Sep 17
52 °FClear.6 mph72%30.15 "Hg10 mi
5:00 AM54 °FClear.6 mph63%30.15 "Hg10 mi
4:30 AM54 °FPassing clouds.3 mph63%30.15 "HgN/A
4:00 AM55 °FClear.5 mph59%30.15 "Hg10 mi
3:30 AM55 °FClear.8 mph59%30.15 "Hg10 mi
3:00 AM55 °FClear.7 mph59%30.15 "Hg10 mi
2:30 AM57 °FClear.7 mph55%30.15 "Hg10 mi
2:00 AM57 °FClear.6 mph55%30.15 "Hg10 mi
1:30 AM57 °FClear.9 mph51%30.15 "Hg10 mi
1:00 AM57 °FClear.9 mph51%30.15 "Hg10 mi
12:30 AM57 °FPassing clouds.9 mph51%30.15 "HgN/A
12:00 AM57 °FClear.7 mph51%30.15 "Hg10 mi
11:30 PM
Sep 16
59 °FClear.7 mph48%30.15 "Hg10 mi
11:00 PM59 °FClear.8 mph48%30.15 "Hg10 mi
10:30 PM61 °FClear.9 mph45%30.15 "Hg10 mi
10:00 PM61 °FClear.9 mph45%30.15 "Hg10 mi
9:30 PM63 °FClear.9 mph45%30.15 "Hg10 mi
9:00 PM63 °FClear.9 mph42%30.12 "Hg10 mi
8:30 PM63 °FClear.8 mph42%30.12 "Hg10 mi
8:00 PM64 °FSunny.7 mph40%30.12 "Hg10 mi
7:30 PM66 °FSunny.8 mph35%30.12 "Hg10 mi
7:00 PM68 °FSunny.8 mph33%30.09 "Hg10 mi
6:30 PM68 °FSunny.9 mph33%30.09 "Hg10 mi
6:00 PM70 °FSunny.12 mph31%30.09 "Hg10 mi
5:30 PM72 °FSunny.13 mph29%30.09 "Hg10 mi
5:00 PM72 °FSunny.13 mph29%30.09 "Hg10 mi
4:30 PM72 °FSunny.13 mph31%30.09 "Hg10 mi
4:00 PM72 °FSunny.12 mph29%30.09 "Hg10 mi
3:30 PM72 °FSunny.13 mph29%30.12 "Hg10 mi
3:00 PM70 °FPassing clouds.10 mph33%30.12 "HgN/A
2:30 PM70 °FPassing clouds.12 mph33%30.12 "HgN/A
2:00 PM68 °FSunny.14 mph35%30.12 "Hg10 mi
1:30 PM68 °FPassing clouds.15 mph35%30.15 "HgN/A
1:00 PM68 °FPassing clouds.13 mph35%30.15 "HgN/A
12:30 PM66 °FPassing clouds.16 mph43%30.15 "HgN/A
12:00 PM66 °FPassing clouds.14 mph40%30.15 "HgN/A
11:30 AM64 °FPassing clouds.13 mph46%30.15 "HgN/A
11:00 AM63 °FPassing clouds.10 mph45%30.18 "HgN/A
10:30 AM61 °FSunny.9 mph52%30.18 "Hg10 mi
10:00 AM59 °FSunny.9 mph55%30.18 "Hg10 mi
9:30 AM57 °FSunny.9 mph59%30.18 "Hg10 mi
9:00 AM55 °FSunny.10 mph63%30.18 "Hg10 mi
8:30 AM54 °FSunny.10 mph67%30.15 "Hg10 mi
8:00 AM54 °FSunny.8 mph63%30.15 "Hg10 mi
7:30 AM52 °FClear.7 mph67%30.15 "Hg10 mi
7:00 AM52 °FPassing clouds.8 mph67%30.15 "HgN/A
6:30 AM52 °FClear.9 mph67%30.12 "Hg10 mi
6:00 AM54 °FClear.8 mph63%30.12 "Hg10 mi
Weather by CustomWeather, © 2014

See weather overviewHow to use our weather pages